STARLINK-5367, 55501

Orbit data source: Space-Track

STARLINK-5367, 55501 is a payload satellite owned by SpaceX/Seattle (US) in LEO that was launched on Thu, 02 Feb 2023 UTC via an FALCON 9 launch vehicle from the Air Force Eastern Test Range (AFETR). Payload-class satellites include a variety of spacecraft equipped with specific instruments for various scientific and technological missions. These include communications satellites like Starlink; space stations such as the ISS; scientific satellites like the Hubble; Earth observation satellites from companies like Planet Labs, Umbra, and HawkEye 360; GPS; miniature CubeSats for education and research; and military/defense satellites.

Loading next visibility...
Identifier
55501, 2023-015BE
Orbit
LEO
Country
Flag of USUS
Related business
Manufacturer
SpaceX/Seattle
Mission
Operational Commercial Communications
Bus & Motor
STARLINK, Unknown motor
Mass
305 kg wet, ~290 kg dry
Launch date (UTC)
2023-02-02 (3 years ago)
Launch vehicle
FALCON 9
Launch site
Air Force Eastern Test Range (AFETR)
Object type
Payload
Rocket body
Debris
Shape & HBR
Box + 1 Pan, 10.1 m
Radar Cross Section
13.562 m², Large (>1 m²)

Expand to show TLE details & history
Last TLE update: 12 hours ago

TLE from 12 hours ago
0 STARLINK-5367
1 55501U 23015BE  25340.51417537  .00001560  00000-0  13053-3 0  9991
2 55501  43.0027 124.7708 0001230 279.5808  80.4895 15.02539035156591
Epoch: 2025-12-06T12:20Z
TLE epoch observation values (Epoch: 2025-12-06T12:20:24.751Z)
Latitude
-0.00006°
Longitude
-135.87322°
Altitude
558.708 km
Speed
7.584 km/s
True Right ascension
08h 19m 04s
True Declination
0° 00' 00"
Sunlit
Object was in full shadow at epoch
Visualization orbit readout
Latitude
Unknown
Longitude
Unknown
Altitude
Unknown
Speed
Unknown
Apparent Right ascension
Unknown
Apparent Declination
Unknown
Sunlit
N/A
Visualization observer readout
Local Sidereal Time
22:09:38
Azimuth
Unknown
Elevation
Unknown
Doppler factor
Unknown
Orbital elements
Apogee altitude
561.847 km
Perigee altitude
560.14 km
Semi-major axis
6,939.131 km
Eccentricity
0.00012
Inclination
43.0027°
RAAN
124.7708°
Arg. of periapsis
279.5808°
True anomaly
80.5034°
Mean anomaly
80.4895°
Eccentric anomaly
80.49645°
Mean motion
3.75479 °/min
Orbital period
95.88 mins
BSTAR
0.00013053
Loading maneuver chart data...
Computing Atmospheric mass density...
Loading historical data...
Loading historical data...
Loading historical data...
Loading historical data...
Loading historical data...
Loading historical data...
Loading historical data...

Documentation

Showing up to 5 results
|